• En España
  • Lista de países
  • Para 7 días
  • Temperatura del agua
  • Mapa Satelital
  • El tiempo en el mapa
  • Informadores
  • user-avatar
    Iniciar sesión

    Tiempo cada hora Mezhozere

    Hoy, 21 Mayo, Lunes

    Tiempo Temperatura Precipitaciones Viento Presión Humedad
    00:00 +9°C° 0 mm 1 mps 755 mmHg 71%
    01:00 +8°C° 0 mm 1 mps 755 mmHg 73%
    02:00 +7°C° 0 mm 1 mps 756 mmHg 79%
    03:00 +8°C° 0 mm 1 mps 756 mmHg 77%
    04:00 +9°C° 0 mm 1 mps 756 mmHg 75%
    05:00 +9°C° 0 mm 1 mps 757 mmHg 72%
    06:00 +12°C° 0 mm 1 mps 757 mmHg 64%
    07:00 +15°C° 0 mm 1 mps 757 mmHg 56%
    08:00 +17°C° 0 mm 0 mps 757 mmHg 47%
    09:00 +19°C° 0 mm 0 mps 757 mmHg 43%
    10:00 +22°C° 0 mm 1 mps 758 mmHg 39%
    11:00 +24°C° 0 mm 1 mps 758 mmHg 34%
    12:00 +24°C° 0 mm 1 mps 757 mmHg 34%
    13:00 +24°C° 0 mm 1 mps 757 mmHg 33%
    14:00 +24°C° 0 mm 1 mps 757 mmHg 32%
    15:00 +24°C° 0 mm 1 mps 757 mmHg 34%
    16:00 +24°C° 0 mm 1 mps 756 mmHg 35%
    17:00 +23°C° 0 mm 1 mps 756 mmHg 37%
    18:00 +21°C° 0 mm 1 mps 756 mmHg 46%
    19:00 +18°C° 0 mm 1 mps 756 mmHg 54%
    20:00 +15°C° 0 mm 1 mps 756 mmHg 63%
    21:00 +14°C° 0 mm 1 mps 757 mmHg 66%
    22:00 +13°C° 0 mm 1 mps 757 mmHg 69%
    23:00 +12°C° 0 mm 1 mps 757 mmHg 72%

    Mañana, 22 Mayo, Martes

    Tiempo Temperatura Precipitaciones Viento Presión Humedad
    00:00 +12°C° 0 mm 1 mps 757 mmHg 75%
    01:00 +11°C° 0 mm 1 mps 757 mmHg 77%
    02:00 +11°C° 0 mm 1 mps 757 mmHg 80%
    03:00 +11°C° 0 mm 1 mps 757 mmHg 78%
    04:00 +12°C° 0 mm 1 mps 757 mmHg 77%
    05:00 +12°C° 0 mm 1 mps 757 mmHg 76%
    06:00 +15°C° 0 mm 1 mps 757 mmHg 68%
    07:00 +17°C° 0 mm 2 mps 757 mmHg 60%
    08:00 +19°C° 0 mm 2 mps 757 mmHg 52%
    09:00 +20°C° 0 mm 3 mps 756 mmHg 47%
    10:00 +20°C° 0 mm 3 mps 756 mmHg 43%
    11:00 +21°C° 0 mm 3 mps 756 mmHg 38%
    12:00 +21°C° 0 mm 3 mps 755 mmHg 39%
    13:00 +21°C° 0 mm 3 mps 755 mmHg 40%
    14:00 +21°C° 0 mm 3 mps 754 mmHg 40%
    15:00 +21°C° 0 mm 3 mps 754 mmHg 44%
    16:00 +20°C° 0 mm 3 mps 753 mmHg 48%
    17:00 +20°C° 0 mm 2 mps 753 mmHg 51%
    18:00 +18°C° 0,1 mm 2 mps 753 mmHg 59%
    19:00 +17°C° 0,1 mm 2 mps 753 mmHg 67%
    20:00 +15°C° 0,1 mm 2 mps 753 mmHg 75%
    21:00 +15°C° 0,3 mm 2 mps 752 mmHg 81%
    22:00 +14°C° 0,3 mm 2 mps 752 mmHg 87%
    23:00 +13°C° 0,3 mm 2 mps 752 mmHg 94%

    Pasado mañana, 23 Mayo, Miércoles

    Tiempo Temperatura Precipitaciones Viento Presión Humedad
    00:00 +13°C° 0 mm 2 mps 752 mmHg 95%
    01:00 +13°C° 0 mm 2 mps 752 mmHg 96%
    02:00 +13°C° 0 mm 2 mps 752 mmHg 97%
    03:00 +13°C° 0 mm 2 mps 752 mmHg 96%
    04:00 +13°C° 0 mm 2 mps 752 mmHg 95%
    05:00 +13°C° 0 mm 2 mps 751 mmHg 95%
    06:00 +14°C° 0 mm 2 mps 751 mmHg 92%
    07:00 +15°C° 0 mm 2 mps 751 mmHg 89%
    08:00 +15°C° 0 mm 2 mps 751 mmHg 86%
    09:00 +17°C° 0,1 mm 2 mps 751 mmHg 79%
    10:00 +18°C° 0,1 mm 3 mps 751 mmHg 71%
    11:00 +20°C° 0,1 mm 3 mps 751 mmHg 63%
    12:00 +20°C° 0,2 mm 2 mps 751 mmHg 61%
    13:00 +21°C° 0,2 mm 2 mps 751 mmHg 58%
    14:00 +23°C° 0,2 mm 2 mps 750 mmHg 56%
    15:00 +21°C° 0,5 mm 2 mps 750 mmHg 62%
    16:00 +20°C° 0,5 mm 2 mps 750 mmHg 68%
    17:00 +21°C° 0,5 mm 1 mps 750 mmHg 74%
    18:00 +19°C° 0,1 mm 1 mps 750 mmHg 79%
    19:00 +18°C° 0,1 mm 1 mps 750 mmHg 85%
    20:00 +15°C° 0,1 mm 1 mps 750 mmHg 90%
    21:00 +15°C° 0 mm 1 mps 750 mmHg 91%
    22:00 +14°C° 0 mm 1 mps 750 mmHg 92%
    23:00 +14°C° 0 mm 1 mps 750 mmHg 93%

    24 Mayo, Jueves

    Tiempo Temperatura Precipitaciones Viento Presión Humedad
    00:00 +13°C° 0,1 mm 1 mps 750 mmHg 93%
    01:00 +13°C° 0,1 mm 1 mps 750 mmHg 94%
    02:00 +12°C° 0,1 mm 1 mps 750 mmHg 94%
    03:00 +13°C° 0 mm 2 mps 751 mmHg 93%
    04:00 +13°C° 0 mm 2 mps 751 mmHg 92%
    05:00 +13°C° 0 mm 2 mps 751 mmHg 91%
    06:00 +14°C° 0 mm 2 mps 751 mmHg 86%
    07:00 +14°C° 0 mm 3 mps 752 mmHg 80%
    08:00 +17°C° 0 mm 3 mps 752 mmHg 75%
    09:00 +15°C° 0,1 mm 4 mps 752 mmHg 76%
    10:00 +15°C° 0,1 mm 4 mps 753 mmHg 76%
    11:00 +14°C° 0,1 mm 5 mps 753 mmHg 77%
    12:00 +14°C° 0 mm 4 mps 753 mmHg 73%
    13:00 +14°C° 0 mm 4 mps 754 mmHg 69%
    14:00 +14°C° 0 mm 4 mps 754 mmHg 64%
    15:00 +15°C° 0 mm 4 mps 754 mmHg 58%
    16:00 +15°C° 0 mm 4 mps 755 mmHg 51%
    17:00 +17°C° 0 mm 4 mps 755 mmHg 45%
    18:00 +14°C° 0 mm 3 mps 755 mmHg 50%
    19:00 +12°C° 0 mm 3 mps 756 mmHg 55%
    20:00 +12°C° 0 mm 2 mps 756 mmHg 61%
    21:00 +9°C° 0 mm 2 mps 757 mmHg 61%
    22:00 +8°C° 0 mm 2 mps 757 mmHg 61%
    23:00 +7°C° 0 mm 2 mps 757 mmHg 62%

    25 Mayo, Viernes

    Tiempo Temperatura Precipitaciones Viento Presión Humedad
    00:00 +6°C° 0 mm 2 mps 758 mmHg 62%
    01:00 +6°C° 0 mm 2 mps 758 mmHg 63%
    02:00 +5°C° 0 mm 2 mps 759 mmHg 64%
    03:00 +5°C° 0 mm 2 mps 759 mmHg 63%
    04:00 +6°C° 0 mm 2 mps 759 mmHg 62%
    05:00 +6°C° 0 mm 2 mps 760 mmHg 60%
    06:00 +8°C° 0 mm 2 mps 760 mmHg 53%
    07:00 +10°C° 0 mm 3 mps 760 mmHg 45%
    08:00 +12°C° 0 mm 3 mps 760 mmHg 38%
    09:00 +13°C° 0 mm 3 mps 760 mmHg 36%
    10:00 +16°C° 0 mm 3 mps 760 mmHg 35%
    11:00 +17°C° 0 mm 3 mps 760 mmHg 33%
    12:00 +17°C° 0 mm 2 mps 760 mmHg 33%
    13:00 +18°C° 0 mm 2 mps 760 mmHg 32%
    14:00 +19°C° 0 mm 2 mps 760 mmHg 32%
    15:00 +19°C° 0 mm 2 mps 760 mmHg 34%
    16:00 +19°C° 0 mm 2 mps 759 mmHg 35%
    17:00 +19°C° 0 mm 2 mps 759 mmHg 37%
    18:00 +17°C° 0 mm 2 mps 759 mmHg 45%
    19:00 +15°C° 0 mm 2 mps 759 mmHg 53%
    20:00 +13°C° 0 mm 1 mps 759 mmHg 61%
    21:00 +12°C° 0 mm 1 mps 759 mmHg 63%
    22:00 +11°C° 0 mm 1 mps 760 mmHg 64%
    23:00 +10°C° 0 mm 1 mps 760 mmHg 65%

    26 Mayo, Sábado

    Tiempo Temperatura Precipitaciones Viento Presión Humedad
    00:00 +10°C° 0 mm 1 mps 760 mmHg 67%
    01:00 +9°C° 0 mm 1 mps 760 mmHg 68%
    02:00 +8°C° 0 mm 2 mps 760 mmHg 70%
    03:00 +9°C° 0 mm 2 mps 761 mmHg 68%
    04:00 +9°C° 0 mm 2 mps 761 mmHg 67%
    05:00 +10°C° 0 mm 2 mps 761 mmHg 66%
    06:00 +13°C° 0 mm 2 mps 761 mmHg 59%
    07:00 +14°C° 0 mm 3 mps 761 mmHg 53%
    08:00 +18°C° 0 mm 3 mps 761 mmHg 46%
    09:00 +19°C° 0 mm 3 mps 761 mmHg 43%
    10:00 +20°C° 0 mm 3 mps 761 mmHg 40%
    11:00 +21°C° 0 mm 3 mps 761 mmHg 36%
    12:00 +22°C° 0 mm 3 mps 761 mmHg 36%
    13:00 +22°C° 0 mm 3 mps 760 mmHg 36%
    14:00 +23°C° 0 mm 4 mps 760 mmHg 36%
    15:00 +24°C° 0 mm 3 mps 760 mmHg 38%
    16:00 +22°C° 0 mm 3 mps 759 mmHg 41%
    17:00 +22°C° 0 mm 3 mps 759 mmHg 43%
    18:00 +20°C° 0 mm 3 mps 759 mmHg 52%
    19:00 +18°C° 0 mm 2 mps 759 mmHg 61%
    20:00 +16°C° 0 mm 2 mps 758 mmHg 70%
    21:00 +15°C° 0 mm 2 mps 758 mmHg 72%
    22:00 +14°C° 0 mm 2 mps 758 mmHg 75%
    23:00 +13°C° 0 mm 2 mps 758 mmHg 78%
    Mostrar más